• In Hungary
  • List of Countries
  • For 7 days
  • Water Temperature
  • Satellite Maps
  • Weather Map
  • News
  • Weather Widgets
  • user-avatar
    Login

    Hourly Weather Sozopol

    Today, 18 June, Monday

    Time Temperature Precipitation Wind Pressure Humidity
    00:00 +21°C° 0 mm 1 mps 753 mmHg 89%
    01:00 +19°C° 0 mm 2 mps 753 mmHg 90%
    02:00 +19°C° 0 mm 2 mps 753 mmHg 91%
    03:00 +19°C° 0.3 mm 2 mps 753 mmHg 91%
    04:00 +19°C° 0.3 mm 2 mps 753 mmHg 92%
    05:00 +19°C° 0.3 mm 3 mps 753 mmHg 92%
    06:00 +20°C° 0 mm 3 mps 753 mmHg 86%
    07:00 +22°C° 0 mm 3 mps 753 mmHg 79%
    08:00 +25°C° 0 mm 4 mps 753 mmHg 73%
    09:00 +26°C° 0.1 mm 4 mps 753 mmHg 67%
    10:00 +28°C° 0.1 mm 4 mps 753 mmHg 61%
    11:00 +29°C° 0.1 mm 5 mps 753 mmHg 55%
    12:00 +29°C° 0.4 mm 5 mps 753 mmHg 57%
    13:00 +29°C° 0.4 mm 6 mps 753 mmHg 59%
    14:00 +29°C° 0 mm 6 mps 753 mmHg 57%
    15:00 +29°C° 0.1 mm 6 mps 753 mmHg 56%
    16:00 +29°C° 0.1 mm 6 mps 753 mmHg 54%
    17:00 +29°C° 0.1 mm 6 mps 754 mmHg 53%
    18:00 +27°C° 0 mm 5 mps 754 mmHg 61%
    19:00 +25°C° 0 mm 4 mps 754 mmHg 69%
    20:00 +21°C° 0 mm 4 mps 754 mmHg 77%
    21:00 +21°C° 0 mm 3 mps 754 mmHg 80%
    22:00 +20°C° 0 mm 3 mps 754 mmHg 83%
    23:00 +19°C° 0 mm 3 mps 755 mmHg 87%

    Tomorrow, 19 June, Tuesday

    Time Temperature Precipitation Wind Pressure Humidity
    00:00 +19°C° 0 mm 3 mps 755 mmHg 86%
    01:00 +18°C° 0 mm 3 mps 755 mmHg 86%
    02:00 +18°C° 0 mm 4 mps 755 mmHg 86%
    03:00 +18°C° 0 mm 4 mps 755 mmHg 84%
    04:00 +17°C° 0 mm 4 mps 755 mmHg 82%
    05:00 +17°C° 0 mm 4 mps 755 mmHg 80%
    06:00 +19°C° 0 mm 5 mps 756 mmHg 71%
    07:00 +22°C° 0 mm 5 mps 756 mmHg 62%
    08:00 +24°C° 0 mm 6 mps 756 mmHg 54%
    09:00 +26°C° 0.1 mm 6 mps 756 mmHg 50%
    10:00 +28°C° 0.1 mm 6 mps 756 mmHg 47%
    11:00 +29°C° 0.1 mm 7 mps 756 mmHg 44%
    12:00 +30°C° 0.1 mm 7 mps 756 mmHg 43%
    13:00 +30°C° 0.1 mm 7 mps 756 mmHg 42%
    14:00 +30°C° 0.1 mm 7 mps 756 mmHg 41%
    15:00 +30°C° 0 mm 7 mps 756 mmHg 41%
    16:00 +29°C° 0 mm 7 mps 756 mmHg 42%
    17:00 +29°C° 0 mm 7 mps 756 mmHg 43%
    18:00 +27°C° 0.1 mm 6 mps 756 mmHg 51%
    19:00 +25°C° 0.1 mm 5 mps 757 mmHg 60%
    20:00 +22°C° 0.1 mm 5 mps 757 mmHg 68%
    21:00 +21°C° 0.1 mm 4 mps 757 mmHg 73%
    22:00 +21°C° 0.1 mm 4 mps 757 mmHg 78%
    23:00 +20°C° 0.1 mm 4 mps 758 mmHg 83%

    Day after tomorrow, 20 June, Wednesday

    Time Temperature Precipitation Wind Pressure Humidity
    00:00 +19°C° 0 mm 4 mps 758 mmHg 83%
    01:00 +19°C° 0 mm 4 mps 758 mmHg 83%
    02:00 +19°C° 0 mm 4 mps 758 mmHg 82%
    03:00 +18°C° 0 mm 4 mps 758 mmHg 80%
    04:00 +18°C° 0 mm 4 mps 758 mmHg 77%
    05:00 +17°C° 0 mm 5 mps 758 mmHg 74%
    06:00 +20°C° 0 mm 5 mps 758 mmHg 67%
    07:00 +23°C° 0 mm 5 mps 758 mmHg 59%
    08:00 +26°C° 0 mm 6 mps 758 mmHg 51%
    09:00 +27°C° 0 mm 6 mps 759 mmHg 46%
    10:00 +29°C° 0 mm 6 mps 759 mmHg 41%
    11:00 +32°C° 0 mm 6 mps 759 mmHg 36%
    12:00 +32°C° 0 mm 6 mps 759 mmHg 35%
    13:00 +33°C° 0 mm 6 mps 758 mmHg 34%
    14:00 +33°C° 0 mm 6 mps 758 mmHg 33%
    15:00 +32°C° 0 mm 6 mps 758 mmHg 35%
    16:00 +32°C° 0 mm 6 mps 758 mmHg 37%
    17:00 +30°C° 0 mm 6 mps 758 mmHg 39%
    18:00 +28°C° 0 mm 5 mps 758 mmHg 49%
    19:00 +25°C° 0 mm 4 mps 758 mmHg 58%
    20:00 +22°C° 0 mm 3 mps 758 mmHg 68%
    21:00 +21°C° 0 mm 3 mps 758 mmHg 72%
    22:00 +20°C° 0 mm 3 mps 758 mmHg 76%
    23:00 +20°C° 0 mm 3 mps 758 mmHg 80%

    21 June, Thursday

    Time Temperature Precipitation Wind Pressure Humidity
    00:00 +19°C° 0 mm 3 mps 758 mmHg 79%
    01:00 +19°C° 0 mm 3 mps 758 mmHg 79%
    02:00 +19°C° 0 mm 3 mps 758 mmHg 79%
    03:00 +19°C° 0 mm 3 mps 758 mmHg 78%
    04:00 +18°C° 0 mm 3 mps 758 mmHg 77%
    05:00 +18°C° 0 mm 3 mps 757 mmHg 76%
    06:00 +21°C° 0 mm 4 mps 757 mmHg 67%
    07:00 +23°C° 0 mm 4 mps 757 mmHg 59%
    08:00 +27°C° 0 mm 4 mps 757 mmHg 51%
    09:00 +28°C° 0 mm 4 mps 757 mmHg 46%
    10:00 +30°C° 0 mm 4 mps 757 mmHg 41%
    11:00 +32°C° 0 mm 4 mps 757 mmHg 36%
    12:00 +33°C° 0 mm 4 mps 756 mmHg 35%
    13:00 +33°C° 0 mm 4 mps 756 mmHg 34%
    14:00 +34°C° 0 mm 4 mps 756 mmHg 33%
    15:00 +33°C° 0 mm 4 mps 755 mmHg 35%
    16:00 +33°C° 0 mm 3 mps 755 mmHg 37%
    17:00 +31°C° 0 mm 3 mps 755 mmHg 39%
    18:00 +29°C° 0 mm 2 mps 755 mmHg 47%
    19:00 +27°C° 0 mm 2 mps 755 mmHg 54%
    20:00 +24°C° 0 mm 1 mps 755 mmHg 61%
    21:00 +24°C° 0 mm 1 mps 755 mmHg 62%
    22:00 +23°C° 0 mm 1 mps 755 mmHg 63%
    23:00 +20°C° 0 mm 0 mps 755 mmHg 64%

    22 June, Friday

    Time Temperature Precipitation Wind Pressure Humidity
    00:00 +22°C° 0 mm 1 mps 755 mmHg 64%
    01:00 +22°C° 0 mm 1 mps 754 mmHg 63%
    02:00 +22°C° 0 mm 1 mps 754 mmHg 63%
    03:00 +21°C° 0 mm 1 mps 754 mmHg 63%
    04:00 +21°C° 0 mm 1 mps 754 mmHg 64%
    05:00 +21°C° 0 mm 1 mps 754 mmHg 64%
    06:00 +23°C° 0 mm 1 mps 754 mmHg 59%
    07:00 +26°C° 0 mm 1 mps 754 mmHg 53%
    08:00 +29°C° 0 mm 2 mps 754 mmHg 47%
    09:00 +30°C° 0 mm 2 mps 754 mmHg 44%
    10:00 +32°C° 0 mm 2 mps 753 mmHg 40%
    11:00 +35°C° 0 mm 2 mps 753 mmHg 36%
    12:00 +35°C° 0 mm 2 mps 753 mmHg 36%
    13:00 +35°C° 0 mm 3 mps 753 mmHg 36%
    14:00 +35°C° 0 mm 4 mps 752 mmHg 36%
    15:00 +34°C° 0 mm 4 mps 752 mmHg 37%
    16:00 +34°C° 0 mm 4 mps 752 mmHg 37%
    17:00 +34°C° 0 mm 4 mps 752 mmHg 38%
    18:00 +32°C° 0 mm 4 mps 752 mmHg 42%
    19:00 +29°C° 0 mm 4 mps 752 mmHg 46%
    20:00 +28°C° 0 mm 4 mps 752 mmHg 50%
    21:00 +27°C° 0 mm 4 mps 752 mmHg 54%
    22:00 +26°C° 0 mm 4 mps 752 mmHg 59%
    23:00 +25°C° 0 mm 4 mps 753 mmHg 63%

    23 June, Saturday

    Time Temperature Precipitation Wind Pressure Humidity
    00:00 +23°C° 0 mm 5 mps 753 mmHg 67%
    01:00 +22°C° 0 mm 6 mps 753 mmHg 71%
    02:00 +20°C° 0 mm 7 mps 753 mmHg 75%
    03:00 +20°C° 0 mm 7 mps 753 mmHg 77%
    04:00 +19°C° 0 mm 6 mps 754 mmHg 78%
    05:00 +17°C° 0 mm 6 mps 754 mmHg 80%
    06:00 +19°C° 0 mm 6 mps 755 mmHg 77%
    07:00 +18°C° 0 mm 7 mps 755 mmHg 74%
    08:00 +20°C° 0 mm 7 mps 755 mmHg 71%
    09:00 +21°C° 0 mm 7 mps 755 mmHg 65%
    10:00 +23°C° 0 mm 6 mps 756 mmHg 60%
    11:00 +26°C° 0 mm 6 mps 756 mmHg 54%
    12:00 +26°C° 0 mm 6 mps 756 mmHg 53%
    13:00 +26°C° 0 mm 6 mps 756 mmHg 52%
    14:00 +27°C° 0 mm 6 mps 756 mmHg 51%
    15:00 +26°C° 0 mm 7 mps 756 mmHg 54%
    16:00 +23°C° 0 mm 7 mps 757 mmHg 58%
    17:00 +22°C° 0 mm 8 mps 757 mmHg 62%
    18:00 +20°C° 0.2 mm 7 mps 757 mmHg 70%
    19:00 +17°C° 0.2 mm 7 mps 758 mmHg 79%
    20:00 +16°C° 0.2 mm 7 mps 758 mmHg 87%
    21:00 +15°C° 1 mm 7 mps 758 mmHg 89%
    22:00 +14°C° 1 mm 6 mps 759 mmHg 92%
    23:00 +14°C° 1 mm 6 mps 759 mmHg 94%
    Show more